Location: Kawakawa
(35.3830°S, 174.0670°E)
Time: 18:39:39
(UTC+12:00)

Envisat - Pass Details

Date: 15 August 2020
Orbit: 764 x 766 km, 98.1° (Epoch: 25 September)

Event Time Altitude Azimuth Distance (km) Brightness Sun altitude
Rises 18:23:43 0° 166° (SSE) 3,266 6.0 -7.1°
Reaches altitude 10° 18:26:03 10° 164° (SSE) 2,332 5.2 -7.6°
Maximum altitude 18:31:12 75° 78° (ENE) 802 3.0 -8.6°
Drops below altitude 10° 18:36:17 10° 352° (N) 2,303 5.7 -9.6°
Sets 18:38:35 0° 350° (N) 3,221 6.5 -10.1°
